Location: Chacón
(10.5789°N, 66.9317°W)
Time: 11:29:50
(UTC+00:00)

CSL-04 DEB - Pass Details

Date: 23 May 2024
Orbit: 515 x 587 km, 98.7° (Epoch: 24 June)

Event Time Altitude Azimuth Distance (km) Brightness Sun altitude
Rises 08:25:09 0° 9° (N) 2,675 8.3 -23.1°
Reaches altitude 10° 08:27:17 10° 7° (N) 1,774 7.3 -22.7°
Enters shadow 08:30:52 69° 311° (NW) 562 4.2 -21.9°
